THOR ABLESTAR DEB, 404

Orbit data source: Space-Track

THOR ABLESTAR DEB, 404 is space debris in LEO originally from a launch on Thu, 29 Jun 1961 UTC launched from the Air Force Eastern Test Range (AFETR). Debris objects in space refer to the collection of defunct objects orbiting the Earth. Examples of debris include non-operational satellites, rocket bodies, and fragments generated from explosions, collisions, or faulty payload assembly.

Loading next visibility...
Identifier
404, 1961-015ED
Orbit
LEO
Country
Flag of USUS
Related business
Manufacturer
Unknown
Mission
Spacecraft
Bus & Motor
Unknown
Mass
Unknown
Launch date (UTC)
1961-06-29 (64 years ago)
Launch vehicle
Unknown
Launch site
Air Force Eastern Test Range (AFETR)
Object type
Payload
Rocket body
Debris
Shape & HBR
Unknown
Radar Cross Section
Medium (>0.1 m² and <1 m²)

Expand to show TLE details & history
Last TLE update: 2 days ago

TLE from 2 days ago
0 THOR ABLESTAR DEB
1 00404U 61015ED  25259.49710640  .00000463  00000-0  96438-3 0  9991
2 00404  66.4710 317.9365 0559015 317.4085  38.4834 12.92209867  7879
Epoch: 2025-09-16T11:55Z
TLE epoch observation values (Epoch: 2025-09-16T11:55:49.992Z)
Latitude
0.00001°
Longitude
143.29164°
Altitude
968.956 km
Speed
7.522 km/s
True Right ascension
21h 11m 44s
True Declination
0° 00' 00"
Sunlit
Object was in full shadow at epoch
Visualization orbit readout
Latitude
Unknown
Longitude
Unknown
Altitude
Unknown
Speed
Unknown
Apparent Right ascension
Unknown
Apparent Declination
Unknown
Sunlit
N/A
Visualization observer readout
Local Sidereal Time
08:20:25
Azimuth
Unknown
Elevation
Unknown
Doppler factor
Unknown
Orbital elements
Apogee altitude
1,719.996 km
Perigee altitude
862.534 km
Semi-major axis
7,669.402 km
Eccentricity
0.0559
Inclination
66.471°
RAAN
317.9365°
Arg. of periapsis
317.4085°
True anomaly
42.69594°
Mean anomaly
38.4834°
Eccentric anomaly
40.56635°
Mean motion
3.23148 °/min
Orbital period
111.4 mins
BSTAR
0.00096438
Loading maneuver chart data...
Computing Atmospheric mass density...

Documentation

Showing up to 5 results
|